Regional Weather Roundup
Issued by NWS Charleston, SC

Current Version | Previous Version | Graphics & Text | Print | Product List | Glossary On
Versions: 1 2 3 4 5 6 7 8 9 10 11 12 13 14 15 16 17 18 19 20 21 22 23 24 25 26 27 28 29 30 31 32 33 34 35 36 37 38 39 40 41 42 43 44 45 46 47 48 49 50
000 ASUS42 KCHS 260812 RWRCHS REGIONAL WEATHER ROUNDUP NATIONAL WEATHER SERVICE CHARLESTON SC 400 AM EDT MON JUN 26 2017 NOTE: "FAIR" INDICATES FEW OR NO CLOUDS BELOW 12,000 FEET WITH NO SIGNIFICANT WEATHER AND/OR OBSTRUCTIONS TO VISIBILITY. NOT ALL STATIONS ARE QUALITY CONTROLLED. USE DATA WITH CAUTION... ESPECIALLY DEWPOINT OBSERVATIONS. SCZ027-030-031-034>040-042>050-260900- ...SOUTHEAST SOUTH CAROLINA... CITY SKY/WX TMP DP RH WIND PRES REMARKS N CHARLESTON CLOUDY 74 72 93 CALM 30.05F WATERFRONT PRK N/A 76 75 96 VRB3 30.03F JOHNS ISLAND CLOUDY 75 75 100 CALM 30.05F PINOPOLIS N/A 75 75 100 CALM 29.99F MONCKS CORNER PTSUNNY 72 72 100 CALM 30.05F FOG SUMMERVILLE PTSUNNY 72 72 100 CALM 30.07S FOG BEAUFORT MCAS CLOUDY 76 75 97 CALM 30.05F BEAUFORT ARPT NOT AVBL HILTON HEAD IS CLOUDY 75 75 100 NW5 30.06F WALTERBORO CLOUDY 72 72 100 NW3 30.07S FOG ALLENDALE PTSUNNY 73 72 94 CALM 30.06S FOG ...SOUTHERN MIDLANDS AND PEE DEE... CITY SKY/WX TMP DP RH WIND PRES REMARKS GEORGETOWN PTSUNNY 72 72 100 CALM 30.05F KINGSTREE FAIR 72 70 94 CALM 30.06F ORANGEBURG CLOUDY 72 70 93 NE3 30.08F BARNWELL FAIR 73 72 94 NE5 30.07F AIKEN FAIR 70 64 83 NE3 30.12F MANNING FAIR 73 73 100 N12 30.07S COLUMBIA CLOUDY 76 64 66 N3 30.08F SUMTER CLOUDY 72 66 82 N5 30.06F FLORENCE MOCLDY 75 68 78 N7 30.08F MYRTLE BEACH MOCLDY 75 73 93 N5 30.06F N MYRTLE BEACH CLOUDY 75 74 96 N3 30.05F $$ GAZ063-065-086>088-099>101-113>116-118-119-134>141-150-260900- ...SOUTHEAST GEORGIA... CITY SKY/WX TMP DP RH WIND PRES REMARKS SAVANNAH ARPT CLOUDY 76 73 91 CALM 30.07S HUNTER AAF CLOUDY 76 74 94 CALM 30.04S FORT STEWART CLOUDY 73 73 100 CALM 30.04F STATESBORO CLOUDY 76 32 20 CALM 30.06S SYLVANIA CLOUDY 76 76 100 CALM 30.07F CLAXTON FAIR 73 72 98 CALM 30.06F FOG ...CSRA...CENTRAL AND FAR SOUTHEAST GEORGIA... CITY SKY/WX TMP DP RH WIND PRES REMARKS THOMSON PTCLDY 69 65 86 CALM 30.15S AUGUSTA-BUSH CLOUDY 75 69 81 N3 30.07F AUGUSTA-DANIEL CLOUDY 75 63 66 N7 30.09F SWAINSBORO FAIR 72 72 100 N6 30.08S VIDALIA CLOUDY 73 72 94 CALM 30.07S EASTMAN FAIR 69 68 96 CALM 30.10F HAZLEHURST N/A 73 73 100 CALM 30.06F ALMA CLOUDY 75 73 93 W3 30.06F WAYCROSS MOCLDY 77 77 100 NW5 30.06F JESUP FAIR 73 72 94 CALM 30.06F BAXLEY MOCLDY 73 73 100 CALM 30.07S BRUNSWICK CLOUDY 75 73 94 CALM 30.07S SAINT SIMONS CLOUDY 78 75 90 NW3 30.05S $$ SCZ027-028-034-036>038-045-046-048>050-GAZ119-141-260900- ...LAKE AND SUPPLEMENTAL COASTAL OBSERVATIONS... STATION/POSITION TIME TEMP WIND PRES WAVE SWELL AIR SEA DIR/SP/G HT/PER HT/PER/DIR (UTC) (F) (DEG/KT/KT) (MB) (FT/S) (FT/S/D) WINYAH BAY 0645 74 330/ 4 1018.0 LAKE MURRAY 0720 73 350/ 2/ 4 1017.9F ACE BASIN NERRS 0645 75 CALM 1018.0 FORT PULASKI 0742 76 84 360/ 6/ 8 1018.2S SAPELO ISLAND 0700 76 CALM 1018.0 $$ ANZ835-935-AMZ111-154-330-350-352-354-370-450-454-472-260900- ...C-MAN AND BUOY OBSERVATIONS... STATION/POSITION TIME TEMP WIND PRES WAVE SWELL AIR SEA DIR/SP/G HT/PER HT/PER/DIR (UTC) (F) (DEG/KT/KT) (MB) (FT/S) (FT/S/D) BUOY 41004 0750 79 81 250/ 6/ 8 1016.5F 2/ 8 2/140/ 8 BUOY 41008 0750 80 82 240/ 6/ 8 1017.4S 2/ 8 2/100/ 8 FOLLY BEACH CMAN 0700 76 340/ 4/ 6 1018.4F CAPERS NEARSHORE 0708 80 83 10/ 12/ 16 1017.6S FRIPP NEARSHORE 0708 79 83 330/ 8/ 12 1017.4F STATION/POSITION TIME TEMP WIND PRES WAVE SWELL AIR SEA DIR/SP/G HT/PER HT/PER/DIR (UTC) (F) (DEG/KT/KT) (MB) (FT/S) (FT/S/D) 5E ST. MARYS GA 0730 80 N/A 2/ 9 FRYING PAN BUOY 0750 79 80 60/ 4/ 8 1017.0F 3/ 6 3/180/ 6 BUOY 41025 0750 79 80 320/ 10/ 12 1017.0S 3/ 8 2/130/ 8 CAPE LOOKOUT NC 0700 79 340/ 6/ 8 1017.4R BUOY 41002 0750 80 80 200/ 12/ 14 1018.8F 3/ 6 2/220/ 6 BUOY 41010 0750 82 83 160/ 14/ 16 1017.8F 3/ 8 2/110/ 8 ST AUGUSTINE FL 0800 74 77 250/ 5/ 5 1017.6F $$

USA.gov is the U.S. government's official web portal to all federal, state and local government web resources and services.